This is the latest recevied weather packets stored in our database for station/object DO1MIT-10. If no packets are shown the sender has not sent any weather packets the latest 1 day(s).
| Time | Temp. | Humidity | Pressure | Rain* | Wind** | Luminosity | Snow |
|---|---|---|---|---|---|---|---|
| 1777765786 | 12.22° C | 59% | 1018.9 hPa | - | - | - | - |
| 1777764885 | 12.22° C | 60% | 1019 hPa | - | - | - | - |
| 1777763985 | 12.22° C | 61% | 1019.1 hPa | - | - | - | - |
| 1777763085 | 11.67° C | 61% | 1019.2 hPa | - | - | - | - |
| 1777762185 | 11.67° C | 62% | 1019.3 hPa | - | - | - | - |
| 1777761285 | 11.11° C | 63% | 1019.5 hPa | - | - | - | - |
| 1777760385 | 10.56° C | 63% | 1019.4 hPa | - | - | - | - |
| 1777759485 | 10.56° C | 62% | 1019.4 hPa | - | - | - | - |
| 1777758585 | 10.56° C | 61% | 1019.4 hPa | - | - | - | - |
| 1777757685 | 10.56° C | 61% | 1019.5 hPa | - | - | - | - |
| 1777755885 | 11.11° C | 59% | 1019.7 hPa | - | - | - | - |
| 1777754984 | 11.67° C | 58% | 1019.7 hPa | - | - | - | - |
| 1777754084 | 12.22° C | 57% | 1019.8 hPa | - | - | - | - |
| 1777753184 | 12.22° C | 56% | 1019.8 hPa | - | - | - | - |
| 1777752284 | 12.78° C | 54% | 1019.9 hPa | - | - | - | - |
| 1777751384 | 13.33° C | 53% | 1019.9 hPa | - | - | - | - |
| 1777750484 | 13.89° C | 51% | 1019.9 hPa | - | - | - | - |
| 1777749584 | 14.44° C | 50% | 1019.9 hPa | - | - | - | - |
| 1777748684 | 14.44° C | 49% | 1019.9 hPa | - | - | - | - |
| 1777747784 | 15° C | 48% | 1019.9 hPa | - | - | - | - |
| 1777746883 | 16.11° C | 46% | 1019.7 hPa | - | - | - | - |
| 1777745983 | 17.22° C | 45% | 1019.7 hPa | - | - | - | - |
| 1777745083 | 18.33° C | 43% | 1019.7 hPa | - | - | - | - |
| 1777744183 | 19.44° C | 41% | 1019.8 hPa | - | - | - | - |
| 1777743283 | 20.56° C | 41% | 1019.7 hPa | - | - | - | - |
* Rain since midnight (hover to see other rain measurements)
** Current wind speed in m/s (hover to see current wind gust speed)